Time,TemperatureF,DewpointF,PressureIn,WindDirection,WindDirectionDegrees,WindSpeedMPH,WindSpeedGustMPH,Humidity,HourlyPrecipIn,Conditions,Clouds,dailyrainin,SoftwareType,DateUTC
2013-05-18 00:00:00,74.6,71.1,29.81,SE,136,6.0,8.0,89,0.00,,,0.00,Wunderground v.1.15,2013-05-18 05:00:00,
2013-05-18 00:04:00,74.5,71.0,29.81,SE,130,5.0,10.0,89,0.00,,,0.00,weatherlink.com 1.10,2013-05-18 05:04:00,
2013-05-18 00:10:00,74.3,70.8,29.80,ESE,108,5.0,5.0,89,0.00,,,0.00,Wunderground v.1.15,2013-05-18 05:10:00,
2013-05-18 00:15:00,74.2,71.1,29.80,ESE,105,6.0,6.0,90,0.00,,,0.00,Wunderground v.1.15,2013-05-18 05:15:00,
2013-05-18 00:19:00,74.2,71.0,29.80,East,98,5.0,10.0,90,0.00,,,0.00,weatherlink.com 1.10,2013-05-18 05:19:00,
2013-05-18 00:25:00,74.1,71.0,29.80,SSE,150,6.0,6.0,90,0.00,,,0.00,Wunderground v.1.15,2013-05-18 05:25:00,
2013-05-18 00:30:00,74.0,70.9,29.81,ESE,113,5.0,5.0,90,0.00,,,0.00,Wunderground v.1.15,2013-05-18 05:30:00,
2013-05-18 00:34:00,74.0,71.0,29.80,East,80,7.0,10.0,90,0.00,,,0.00,weatherlink.com 1.10,2013-05-18 05:34:00,
2013-05-18 00:40:00,74.0,70.9,29.80,SE,139,6.0,6.0,90,0.00,,,0.00,Wunderground v.1.15,2013-05-18 05:40:00,
2013-05-18 00:49:00,74.0,71.0,29.80,ESE,109,2.0,10.0,90,0.00,,,0.00,weatherlink.com 1.10,2013-05-18 05:49:00,
2013-05-18 00:55:00,74.0,70.9,29.79,SE,136,5.0,7.0,90,0.00,,,0.00,Wunderground v.1.15,2013-05-18 05:55:00,
2013-05-18 01:04:00,73.9,71.0,29.79,ESE,123,5.0,11.0,90,0.00,,,0.00,weatherlink.com 1.10,2013-05-18 06:04:00,
2013-05-18 01:10:00,73.9,70.8,29.80,SE,140,6.0,6.0,90,0.00,,,0.00,Wunderground v.1.15,2013-05-18 06:10:00,
2013-05-18 01:15:00,73.9,71.1,29.80,ESE,108,6.0,8.0,91,0.00,,,0.00,Wunderground v.1.15,2013-05-18 06:15:00,
2013-05-18 01:20:00,73.9,71.1,29.80,ESE,121,6.0,8.0,91,0.00,,,0.00,Wunderground v.1.15,2013-05-18 06:20:00,
2013-05-18 01:21:00,73.9,71.0,29.80,SE,130,5.0,10.0,91,0.00,,,0.00,weatherlink.com 1.10,2013-05-18 06:21:00,
2013-05-18 01:30:00,73.7,70.9,29.79,ESE,115,5.0,8.0,91,0.00,,,0.00,Wunderground v.1.15,2013-05-18 06:30:00,
2013-05-18 01:34:00,73.6,71.0,29.79,SE,129,6.0,11.0,91,0.00,,,0.00,weatherlink.com 1.10,2013-05-18 06:34:00,
2013-05-18 01:35:00,73.6,70.8,29.79,SE,140,5.0,8.0,91,0.00,,,0.00,Wunderground v.1.15,2013-05-18 06:35:00,
2013-05-18 01:40:00,73.5,70.7,29.79,SE,143,5.0,8.0,91,0.00,,,0.00,Wunderground v.1.15,2013-05-18 06:40:00,
2013-05-18 01:49:00,73.3,71.0,29.79,ESE,121,7.0,9.0,92,0.00,,,0.00,weatherlink.com 1.10,2013-05-18 06:49:00,
2013-05-18 01:50:00,73.3,70.8,29.79,ESE,121,5.0,7.0,92,0.00,,,0.00,Wunderground v.1.15,2013-05-18 06:50:00,
2013-05-18 01:55:00,73.2,70.7,29.79,SE,140,5.0,7.0,92,0.00,,,0.00,Wunderground v.1.15,2013-05-18 06:55:00,
2013-05-18 02:00:00,73.1,70.6,29.79,SE,143,5.0,8.0,92,0.00,,,0.00,Wunderground v.1.15,2013-05-18 07:00:00,
2013-05-18 02:06:00,73.0,71.0,29.80,SE,129,3.0,8.0,92,0.00,,,0.00,weatherlink.com 1.10,2013-05-18 07:06:00,
2013-05-18 02:15:00,72.9,70.8,29.79,SE,139,5.0,5.0,93,0.00,,,0.00,Wunderground v.1.15,2013-05-18 07:15:00,
2013-05-18 02:20:00,72.8,70.7,29.79,ESE,117,5.0,5.0,93,0.00,,,0.00,Wunderground v.1.15,2013-05-18 07:20:00,
2013-05-18 02:21:00,72.8,71.0,29.79,SE,138,4.0,9.0,93,0.00,,,0.00,weatherlink.com 1.10,2013-05-18 07:21:00,
2013-05-18 02:30:00,72.6,70.5,29.79,SE,142,5.0,5.0,93,0.00,,,0.00,Wunderground v.1.15,2013-05-18 07:30:00,
2013-05-18 02:35:00,72.5,70.4,29.79,SE,132,5.0,6.0,93,0.00,,,0.00,Wunderground v.1.15,2013-05-18 07:35:00,
2013-05-18 02:36:00,72.5,70.0,29.79,SE,134,5.0,9.0,93,0.00,,,0.00,weatherlink.com 1.10,2013-05-18 07:36:00,
2013-05-18 02:40:00,72.4,70.6,29.79,SE,130,5.0,5.0,94,0.00,,,0.00,Wunderground v.1.15,2013-05-18 07:40:00,
2013-05-18 02:45:00,72.4,70.6,29.79,ESE,121,5.0,5.0,94,0.00,,,0.00,Wunderground v.1.15,2013-05-18 07:45:00,
2013-05-18 02:50:00,72.4,70.6,29.79,ESE,121,4.0,4.0,94,0.00,,,0.00,Wunderground v.1.15,2013-05-18 07:50:00,
2013-05-18 02:51:00,72.4,71.0,29.79,ESE,120,5.0,8.0,94,0.00,,,0.00,weatherlink.com 1.10,2013-05-18 07:51:00,
2013-05-18 03:00:00,72.3,70.5,29.79,SE,136,5.0,6.0,94,0.00,,,0.00,Wunderground v.1.15,2013-05-18 08:00:00,
2013-05-18 03:05:00,72.3,70.5,29.78,SE,132,6.0,6.0,94,0.00,,,0.00,Wunderground v.1.15,2013-05-18 08:05:00,
2013-05-18 03:06:00,72.3,71.0,29.79,SSE,147,3.0,10.0,94,0.00,,,0.00,weatherlink.com 1.10,2013-05-18 08:06:00,
2013-05-18 03:15:00,72.3,70.5,29.79,ESE,115,5.0,7.0,94,0.00,,,0.00,Wunderground v.1.15,2013-05-18 08:15:00,
2013-05-18 03:21:00,72.3,71.0,29.79,ESE,120,3.0,9.0,94,0.00,,,0.00,weatherlink.com 1.10,2013-05-18 08:21:00,
2013-05-18 03:30:00,72.2,70.7,29.78,SE,143,5.0,5.0,95,0.00,,,0.00,Wunderground v.1.15,2013-05-18 08:30:00,
2013-05-18 03:35:00,72.2,70.7,29.78,SE,144,5.0,5.0,95,0.00,,,0.00,Wunderground v.1.15,2013-05-18 08:35:00,
2013-05-18 03:36:00,72.2,71.0,29.79,SE,132,4.0,8.0,95,0.00,,,0.00,weatherlink.com 1.10,2013-05-18 08:36:00,
2013-05-18 03:45:00,72.2,70.7,29.79,SE,128,5.0,5.0,95,0.00,,,0.00,Wunderground v.1.15,2013-05-18 08:45:00,
2013-05-18 03:50:00,72.2,70.7,29.79,SE,130,5.0,5.0,95,0.00,,,0.00,Wunderground v.1.15,2013-05-18 08:50:00,
2013-05-18 03:51:00,72.3,71.0,29.79,SE,130,3.0,7.0,95,0.00,,,0.00,weatherlink.com 1.10,2013-05-18 08:51:00,
2013-05-18 03:55:00,72.3,70.8,29.79,SE,135,4.0,5.0,95,0.00,,,0.00,Wunderground v.1.15,2013-05-18 08:55:00,
2013-05-18 04:00:00,72.3,70.8,29.79,SE,136,3.0,3.0,95,0.00,,,0.00,Wunderground v.1.15,2013-05-18 09:00:00,
2013-05-18 04:05:00,72.4,70.9,29.78,SE,135,4.0,4.0,95,0.00,,,0.00,Wunderground v.1.15,2013-05-18 09:05:00,
2013-05-18 04:06:00,72.4,71.0,29.78,ESE,111,2.0,8.0,95,0.00,,,0.00,weatherlink.com 1.10,2013-05-18 09:06:00,
2013-05-18 04:15:00,72.4,70.9,29.78,SE,129,5.0,5.0,95,0.00,,,0.00,Wunderground v.1.15,2013-05-18 09:15:00,
2013-05-18 04:21:00,72.3,71.0,29.79,ESE,120,4.0,8.0,95,0.00,,,0.00,weatherlink.com 1.10,2013-05-18 09:21:00,
2013-05-18 04:30:00,72.2,70.7,29.79,SE,134,5.0,7.0,95,0.00,,,0.00,Wunderground v.1.15,2013-05-18 09:30:00,
2013-05-18 04:35:00,72.2,70.7,29.79,SE,137,5.0,7.0,95,0.00,,,0.00,Wunderground v.1.15,2013-05-18 09:35:00,
2013-05-18 04:36:00,72.1,71.0,29.79,SE,144,3.0,8.0,95,0.00,,,0.00,weatherlink.com 1.10,2013-05-18 09:36:00,
2013-05-18 04:45:00,72.1,70.6,29.79,South,173,4.0,5.0,95,0.00,,,0.00,Wunderground v.1.15,2013-05-18 09:45:00,
2013-05-18 04:50:00,72.1,70.6,29.79,SSE,163,4.0,4.0,95,0.00,,,0.00,Wunderground v.1.15,2013-05-18 09:50:00,
2013-05-18 04:52:00,72.1,71.0,29.79,SSE,167,2.0,8.0,95,0.00,,,0.00,weatherlink.com 1.10,2013-05-18 09:52:00,
2013-05-18 04:55:00,72.0,70.5,29.78,SE,138,4.0,5.0,95,0.00,,,0.00,Wunderground v.1.15,2013-05-18 09:55:00,
2013-05-18 05:00:00,72.0,70.5,29.78,SSE,161,4.0,6.0,95,0.00,,,0.00,Wunderground v.1.15,2013-05-18 10:00:00,
2013-05-18 05:05:00,72.0,70.5,29.78,SSE,149,5.0,6.0,95,0.00,,,0.00,Wunderground v.1.15,2013-05-18 10:05:00,
2013-05-18 05:07:00,72.0,71.0,29.78,SSE,161,7.0,9.0,95,0.00,,,0.00,weatherlink.com 1.10,2013-05-18 10:07:00,
2013-05-18 05:15:00,71.9,70.4,29.78,SE,128,5.0,6.0,95,0.00,,,0.00,Wunderground v.1.15,2013-05-18 10:15:00,
2013-05-18 05:20:00,71.9,70.4,29.79,South,176,4.0,4.0,95,0.00,,,0.00,Wunderground v.1.15,2013-05-18 10:20:00,
2013-05-18 05:22:00,71.8,70.0,29.79,SSE,149,3.0,7.0,95,0.00,,,0.00,weatherlink.com 1.10,2013-05-18 10:22:00,
2013-05-18 05:30:00,71.8,70.3,29.79,ESE,123,4.0,4.0,95,0.00,,,0.00,Wunderground v.1.15,2013-05-18 10:30:00,
2013-05-18 05:35:00,71.8,70.6,29.78,South,169,4.0,4.0,96,0.00,,,0.00,Wunderground v.1.15,2013-05-18 10:35:00,
2013-05-18 05:37:00,71.8,71.0,29.79,SE,137,2.0,8.0,96,0.00,,,0.00,weatherlink.com 1.10,2013-05-18 10:37:00,
2013-05-18 05:45:00,71.7,70.5,29.78,SSE,154,4.0,5.0,96,0.00,,,0.00,Wunderground v.1.15,2013-05-18 10:45:00,
2013-05-18 05:50:00,71.7,70.5,29.78,SE,144,4.0,5.0,96,0.00,,,0.00,Wunderground v.1.15,2013-05-18 10:50:00,
2013-05-18 05:52:00,71.7,71.0,29.79,ESE,111,8.0,9.0,96,0.00,,,0.00,weatherlink.com 1.10,2013-05-18 10:52:00,
2013-05-18 05:55:00,71.7,70.5,29.79,SSE,161,5.0,5.0,96,0.00,,,0.00,Wunderground v.1.15,2013-05-18 10:55:00,
2013-05-18 06:05:00,71.7,70.5,29.79,South,173,6.0,8.0,96,0.00,,,0.00,Wunderground v.1.15,2013-05-18 11:05:00,
2013-05-18 06:07:00,71.7,71.0,29.79,South,169,7.0,9.0,96,0.00,,,0.00,weatherlink.com 1.10,2013-05-18 11:07:00,
2013-05-18 06:15:00,71.7,70.5,29.80,SSE,161,5.0,8.0,96,0.00,,,0.00,Wunderground v.1.15,2013-05-18 11:15:00,
2013-05-18 06:22:00,71.6,70.0,29.80,SSE,150,7.0,10.0,96,0.00,,,0.00,weatherlink.com 1.10,2013-05-18 11:22:00,
2013-05-18 06:30:00,71.5,70.0,29.80,SSE,155,5.0,6.0,95,0.00,,,0.00,Wunderground v.1.15,2013-05-18 11:30:00,
2013-05-18 06:37:00,71.5,70.0,29.80,SSE,164,4.0,10.0,96,0.00,,,0.00,weatherlink.com 1.10,2013-05-18 11:37:00,
2013-05-18 06:40:00,71.4,70.2,29.80,SE,144,5.0,5.0,96,0.00,,,0.00,Wunderground v.1.15,2013-05-18 11:40:00,
2013-05-18 06:45:00,71.4,70.2,29.80,SSE,150,5.0,5.0,96,0.00,,,0.00,Wunderground v.1.15,2013-05-18 11:45:00,
2013-05-18 06:50:00,71.4,70.2,29.81,SSE,160,6.0,7.0,96,0.00,,,0.00,Wunderground v.1.15,2013-05-18 11:50:00,
2013-05-18 06:53:00,71.4,70.0,29.81,SSE,153,4.0,12.0,96,0.00,,,0.00,weatherlink.com 1.10,2013-05-18 11:53:00,
2013-05-18 07:00:00,71.5,70.3,29.81,SSE,153,5.0,5.0,96,0.00,,,0.00,Wunderground v.1.15,2013-05-18 12:00:00,
2013-05-18 07:05:00,71.5,70.0,29.81,South,176,5.0,6.0,95,0.00,,,0.00,Wunderground v.1.15,2013-05-18 12:05:00,
2013-05-18 07:09:00,71.5,70.0,29.82,SSE,163,3.0,10.0,95,0.00,,,0.00,weatherlink.com 1.10,2013-05-18 12:09:00,
2013-05-18 07:15:00,71.5,70.0,29.82,SSE,161,6.0,8.0,95,0.00,,,0.00,Wunderground v.1.15,2013-05-18 12:15:00,
2013-05-18 07:24:00,71.5,70.0,29.82,SSE,168,5.0,9.0,95,0.00,,,0.00,weatherlink.com 1.10,2013-05-18 12:24:00,
2013-05-18 07:25:00,71.6,70.1,29.82,SSE,156,5.0,8.0,95,0.00,,,0.00,Wunderground v.1.15,2013-05-18 12:25:00,
2013-05-18 07:35:00,71.7,70.2,29.83,SSE,153,5.0,11.0,95,0.00,,,0.00,Wunderground v.1.15,2013-05-18 12:35:00,
2013-05-18 07:38:00,71.7,70.0,29.83,South,185,5.0,11.0,95,0.00,,,0.00,weatherlink.com 1.10,2013-05-18 12:38:00,
2013-05-18 07:45:00,71.8,70.3,29.83,South,175,6.0,7.0,95,0.00,,,0.00,Wunderground v.1.15,2013-05-18 12:45:00,
2013-05-18 07:50:00,71.9,70.4,29.83,SSE,148,5.0,5.0,95,0.00,,,0.00,Wunderground v.1.15,2013-05-18 12:50:00,
2013-05-18 07:53:00,71.9,70.0,29.84,South,183,2.0,10.0,94,0.00,,,0.00,weatherlink.com 1.10,2013-05-18 12:53:00,
2013-05-18 08:00:00,71.9,70.1,29.84,South,173,6.0,6.0,94,0.00,,,0.00,Wunderground v.1.15,2013-05-18 13:00:00,
2013-05-18 08:09:00,71.9,70.0,29.85,South,188,5.0,10.0,94,0.00,,,0.00,weatherlink.com 1.10,2013-05-18 13:09:00,
2013-05-18 08:15:00,71.9,70.1,29.85,SSE,166,5.0,7.0,94,0.00,,,0.00,Wunderground v.1.15,2013-05-18 13:15:00,
2013-05-18 08:20:00,72.1,70.3,29.85,SSE,166,4.0,4.0,94,0.00,,,0.00,Wunderground v.1.15,2013-05-18 13:20:00,
2013-05-18 08:24:00,72.3,71.0,29.85,South,177,5.0,8.0,94,0.00,,,0.00,weatherlink.com 1.10,2013-05-18 13:24:00,
2013-05-18 08:30:00,72.5,70.4,29.85,SSE,160,3.0,3.0,93,0.00,,,0.00,Wunderground v.1.15,2013-05-18 13:30:00,
2013-05-18 08:35:00,72.8,70.7,29.85,South,175,3.0,5.0,93,0.00,,,0.00,Wunderground v.1.15,2013-05-18 13:35:00,
2013-05-18 08:39:00,73.1,71.0,29.85,SSW,192,6.0,8.0,92,0.00,,,0.00,weatherlink.com 1.10,2013-05-18 13:39:00,
2013-05-18 08:45:00,73.4,70.9,29.85,SE,146,4.0,4.0,92,0.00,,,0.00,Wunderground v.1.15,2013-05-18 13:45:00,
2013-05-18 08:50:00,73.8,71.0,29.85,SE,134,4.0,4.0,91,0.00,,,0.00,Wunderground v.1.15,2013-05-18 13:50:00,
2013-05-18 08:54:00,74.1,71.0,29.85,SSE,163,4.0,9.0,90,0.00,,,0.00,weatherlink.com 1.10,2013-05-18 13:54:00,
2013-05-18 09:00:00,74.4,70.9,29.85,SSE,165,4.0,8.0,89,0.00,,,0.00,Wunderground v.1.15,2013-05-18 14:00:00,
2013-05-18 09:05:00,74.2,70.4,29.85,SSE,159,6.0,8.0,88,0.00,,,0.00,Wunderground v.1.15,2013-05-18 14:05:00,
2013-05-18 09:09:00,74.0,71.0,29.85,SSE,168,7.0,12.0,89,0.00,,,0.00,weatherlink.com 1.10,2013-05-18 14:09:00,
2013-05-18 09:15:00,74.2,70.7,29.85,South,179,6.0,7.0,89,0.00,,,0.00,Wunderground v.1.15,2013-05-18 14:15:00,
2013-05-18 09:20:00,74.5,70.7,29.85,South,180,5.0,5.0,88,0.00,,,0.00,Wunderground v.1.15,2013-05-18 14:20:00,
2013-05-18 09:24:00,74.8,71.0,29.85,SSE,155,5.0,9.0,88,0.00,,,0.00,weatherlink.com 1.10,2013-05-18 14:24:00,
2013-05-18 09:30:00,75.3,71.2,29.85,SSE,155,6.0,8.0,87,0.00,,,0.00,Wunderground v.1.15,2013-05-18 14:30:00,
2013-05-18 09:35:00,75.7,71.2,29.85,SSE,168,6.0,8.0,86,0.00,,,0.00,Wunderground v.1.15,2013-05-18 14:35:00,
2013-05-18 09:39:00,75.9,71.0,29.85,SE,143,9.0,13.0,85,0.00,,,0.00,weatherlink.com 1.10,2013-05-18 14:39:00,
2013-05-18 09:40:00,75.9,71.1,29.85,SSE,157,7.0,7.0,85,0.00,,,0.00,Wunderground v.1.15,2013-05-18 14:40:00,
2013-05-18 09:45:00,76.0,71.2,29.85,SSE,168,7.0,7.0,85,0.00,,,0.00,Wunderground v.1.15,2013-05-18 14:45:00,
2013-05-18 09:50:00,76.1,70.9,29.85,South,178,7.0,7.0,84,0.00,,,0.00,Wunderground v.1.15,2013-05-18 14:50:00,
2013-05-18 09:54:00,76.3,71.0,29.85,SSE,157,3.0,10.0,84,0.00,,,0.00,weatherlink.com 1.10,2013-05-18 14:54:00,
2013-05-18 10:00:00,76.6,71.0,29.85,SSE,165,7.0,8.0,83,0.00,,,0.00,Wunderground v.1.15,2013-05-18 15:00:00,
2013-05-18 10:05:00,76.8,71.2,29.85,SE,146,8.0,8.0,83,0.00,,,0.00,Wunderground v.1.15,2013-05-18 15:05:00,
2013-05-18 10:09:00,77.2,71.0,29.85,SE,126,5.0,11.0,82,0.00,,,0.00,weatherlink.com 1.10,2013-05-18 15:09:00,
2013-05-18 10:15:00,77.5,71.6,29.85,South,174,6.0,8.0,82,0.00,,,0.00,Wunderground v.1.15,2013-05-18 15:15:00,
2013-05-18 10:20:00,77.9,71.2,29.85,ESE,103,6.0,7.0,80,0.00,,,0.00,Wunderground v.1.15,2013-05-18 15:20:00,
2013-05-18 10:24:00,78.4,72.0,29.85,SE,134,6.0,11.0,80,0.00,,,0.00,weatherlink.com 1.10,2013-05-18 15:24:00,
2013-05-18 10:30:00,78.7,71.6,29.85,South,184,5.0,6.0,79,0.00,,,0.00,Wunderground v.1.15,2013-05-18 15:30:00,
2013-05-18 10:35:00,78.9,71.1,29.85,SSE,161,7.0,7.0,77,0.00,,,0.00,Wunderground v.1.15,2013-05-18 15:35:00,
2013-05-18 10:39:00,79.2,71.0,29.85,SSE,155,7.0,13.0,77,0.00,,,0.00,weatherlink.com 1.10,2013-05-18 15:39:00,
2013-05-18 10:45:00,79.2,70.6,29.85,SSW,204,7.0,7.0,75,0.00,,,0.00,Wunderground v.1.15,2013-05-18 15:45:00,
2013-05-18 10:54:00,79.9,71.0,29.85,South,176,7.0,15.0,74,0.00,,,0.00,weatherlink.com 1.10,2013-05-18 15:54:00,
2013-05-18 10:55:00,80.0,71.0,29.85,SE,144,8.0,12.0,74,0.00,,,0.00,Wunderground v.1.15,2013-05-18 15:55:00,
2013-05-18 11:00:00,80.3,70.9,29.85,SSW,193,9.0,9.0,73,0.00,,,0.00,Wunderground v.1.15,2013-05-18 16:00:00,
2013-05-18 11:05:00,80.1,70.7,29.85,South,187,10.0,10.0,73,0.00,,,0.00,Wunderground v.1.15,2013-05-18 16:05:00,
2013-05-18 11:11:00,80.2,71.0,29.85,SSW,201,6.0,20.0,73,0.00,,,0.00,weatherlink.com 1.10,2013-05-18 16:11:00,
2013-05-18 11:20:00,80.8,70.5,29.85,SSE,153,9.0,9.0,71,0.00,,,0.00,Wunderground v.1.15,2013-05-18 16:20:00,
2013-05-18 11:25:00,80.7,70.8,29.85,SSW,194,10.0,10.0,72,0.00,,,0.00,Wunderground v.1.15,2013-05-18 16:25:00,
2013-05-18 11:26:00,80.7,71.0,29.85,SSE,162,8.0,17.0,71,0.00,,,0.00,weatherlink.com 1.10,2013-05-18 16:26:00,
2013-05-18 11:35:00,81.4,71.1,29.84,SSW,201,9.0,10.0,71,0.00,,,0.00,Wunderground v.1.15,2013-05-18 16:35:00,
2013-05-18 11:41:00,81.8,71.0,29.84,South,185,9.0,14.0,70,0.00,,,0.00,weatherlink.com 1.10,2013-05-18 16:41:00,
2013-05-18 11:50:00,82.2,71.0,29.84,South,191,8.0,8.0,69,0.00,,,0.00,Wunderground v.1.15,2013-05-18 16:50:00,
2013-05-18 11:55:00,82.5,70.9,29.84,South,187,8.0,8.0,68,0.00,,,0.00,Wunderground v.1.15,2013-05-18 16:55:00,
2013-05-18 11:56:00,82.5,71.0,29.84,SSE,167,10.0,15.0,68,0.00,,,0.00,weatherlink.com 1.10,2013-05-18 16:56:00,
2013-05-18 12:05:00,83.2,70.7,29.83,SSW,193,7.0,15.0,66,0.00,,,0.00,Wunderground v.1.15,2013-05-18 17:05:00,
2013-05-18 12:10:00,82.8,70.3,29.83,SSW,197,10.0,10.0,66,0.00,,,0.00,Wunderground v.1.15,2013-05-18 17:10:00,
2013-05-18 12:11:00,82.8,71.0,29.83,SSW,199,7.0,19.0,67,0.00,,,0.00,weatherlink.com 1.10,2013-05-18 17:11:00,
2013-05-18 12:20:00,83.4,70.8,29.83,SSW,202,10.0,10.0,66,0.00,,,0.00,Wunderground v.1.15,2013-05-18 17:20:00,
2013-05-18 12:26:00,83.7,71.0,29.82,SSE,148,8.0,16.0,66,0.00,,,0.00,weatherlink.com 1.10,2013-05-18 17:26:00,
2013-05-18 12:30:00,83.8,70.8,29.82,SSE,163,8.0,14.0,65,0.00,,,0.00,Wunderground v.1.15,2013-05-18 17:30:00,
2013-05-18 12:35:00,84.0,70.5,29.82,South,172,10.0,14.0,64,0.00,,,0.00,Wunderground v.1.15,2013-05-18 17:35:00,
2013-05-18 12:41:00,84.3,72.0,29.82,SSE,166,4.0,15.0,66,0.00,,,0.00,weatherlink.com 1.10,2013-05-18 17:41:00,
2013-05-18 12:50:00,84.3,71.2,29.82,South,169,8.0,8.0,65,0.00,,,0.00,Wunderground v.1.15,2013-05-18 17:50:00,
2013-05-18 12:55:00,84.5,71.9,29.81,SSE,155,8.0,10.0,66,0.00,,,0.00,Wunderground v.1.15,2013-05-18 17:55:00,
2013-05-18 12:56:00,84.6,72.0,29.81,South,185,9.0,14.0,66,0.00,,,0.00,weatherlink.com 1.10,2013-05-18 17:56:00,
2013-05-18 13:05:00,84.7,71.6,29.81,SSE,158,10.0,10.0,65,0.00,,,0.00,Wunderground v.1.15,2013-05-18 18:05:00,
2013-05-18 13:10:00,84.7,71.6,29.81,SSE,161,9.0,9.0,65,0.00,,,0.00,Wunderground v.1.15,2013-05-18 18:10:00,
2013-05-18 13:11:00,84.8,72.0,29.81,ESE,109,7.0,17.0,65,0.00,,,0.00,weatherlink.com 1.10,2013-05-18 18:11:00,
2013-05-18 13:15:00,84.7,71.6,29.81,SSE,159,9.0,9.0,65,0.00,,,0.00,Wunderground v.1.15,2013-05-18 18:15:00,
2013-05-18 13:25:00,83.7,71.6,29.81,SSE,151,10.0,13.0,67,0.00,,,0.00,Wunderground v.1.15,2013-05-18 18:25:00,
2013-05-18 13:26:00,83.9,72.0,29.81,SSE,158,7.0,15.0,67,0.00,,,0.00,weatherlink.com 1.10,2013-05-18 18:26:00,
2013-05-18 13:35:00,84.1,71.5,29.81,SE,146,10.0,11.0,66,0.00,,,0.00,Wunderground v.1.15,2013-05-18 18:35:00,
2013-05-18 13:40:00,84.6,71.5,29.80,SSE,160,10.0,12.0,65,0.00,,,0.00,Wunderground v.1.15,2013-05-18 18:40:00,
2013-05-18 13:41:00,84.7,72.0,29.80,SSE,154,13.0,17.0,65,0.00,,,0.00,weatherlink.com 1.10,2013-05-18 18:41:00,
2013-05-18 13:50:00,85.6,72.0,29.80,South,169,9.0,11.0,64,0.00,,,0.00,Wunderground v.1.15,2013-05-18 18:50:00,
2013-05-18 13:55:00,85.7,71.7,29.79,South,173,10.0,11.0,63,0.00,,,0.00,Wunderground v.1.15,2013-05-18 18:55:00,
2013-05-18 13:56:00,85.9,72.0,29.79,SSE,149,11.0,19.0,63,0.00,,,0.00,weatherlink.com 1.10,2013-05-18 18:56:00,
2013-05-18 14:05:00,86.6,71.5,29.79,SSW,198,11.0,11.0,61,0.00,,,0.00,Wunderground v.1.15,2013-05-18 19:05:00,
2013-05-18 14:11:00,86.8,72.0,29.79,SE,128,10.0,20.0,62,0.00,,,0.00,weatherlink.com 1.10,2013-05-18 19:11:00,
2013-05-18 14:20:00,86.4,72.3,29.78,ENE,66,11.0,11.0,63,0.00,,,0.00,Wunderground v.1.15,2013-05-18 19:20:00,
2013-05-18 14:27:00,86.7,72.0,29.78,SSE,164,7.0,22.0,62,0.00,,,0.00,weatherlink.com 1.10,2013-05-18 19:27:00,
2013-05-18 14:35:00,86.8,72.2,29.78,East,96,11.0,13.0,62,0.00,,,0.00,Wunderground v.1.15,2013-05-18 19:35:00,
2013-05-18 14:40:00,87.0,72.4,29.78,East,85,11.0,13.0,62,0.00,,,0.00,Wunderground v.1.15,2013-05-18 19:40:00,
2013-05-18 14:42:00,87.1,72.0,29.78,SE,138,9.0,21.0,61,0.00,,,0.00,weatherlink.com 1.10,2013-05-18 19:42:00,
2013-05-18 14:50:00,87.0,71.4,29.78,South,188,13.0,13.0,60,0.00,,,0.00,Wunderground v.1.15,2013-05-18 19:50:00,
2013-05-18 14:55:00,86.9,71.8,29.78,SSE,161,12.0,15.0,61,0.00,,,0.00,Wunderground v.1.15,2013-05-18 19:55:00,
2013-05-18 14:57:00,86.6,72.0,29.77,SSE,165,16.0,22.0,61,0.00,,,0.00,weatherlink.com 1.10,2013-05-18 19:57:00,
2013-05-18 15:05:00,86.9,71.8,29.77,SSE,164,13.0,18.0,61,0.00,,,0.00,Wunderground v.1.15,2013-05-18 20:05:00,
2013-05-18 15:10:00,87.0,71.9,29.77,South,183,12.0,13.0,61,0.00,,,0.00,Wunderground v.1.15,2013-05-18 20:10:00,
2013-05-18 15:12:00,87.1,72.0,29.77,SSE,157,9.0,21.0,61,0.00,,,0.00,weatherlink.com 1.10,2013-05-18 20:12:00,
2013-05-18 15:20:00,87.7,72.1,29.76,SSE,154,11.0,17.0,60,0.00,,,0.00,Wunderground v.1.15,2013-05-18 20:20:00,
2013-05-18 15:25:00,87.3,72.2,29.76,South,184,12.0,17.0,61,0.00,,,0.00,Wunderground v.1.15,2013-05-18 20:25:00,
2013-05-18 15:27:00,87.2,72.0,29.76,SSE,155,13.0,20.0,61,0.00,,,0.00,weatherlink.com 1.10,2013-05-18 20:27:00,
2013-05-18 15:35:00,87.4,71.8,29.76,South,186,12.0,16.0,60,0.00,,,0.00,Wunderground v.1.15,2013-05-18 20:35:00,
2013-05-18 15:42:00,87.1,71.0,29.76,SSE,147,12.0,22.0,60,0.00,,,0.00,weatherlink.com 1.10,2013-05-18 20:42:00,
2013-05-18 15:45:00,87.3,71.7,29.76,South,175,12.0,12.0,60,0.00,,,0.00,Wunderground v.1.15,2013-05-18 20:45:00,
2013-05-18 15:50:00,87.4,71.3,29.75,South,182,12.0,12.0,59,0.00,,,0.00,Wunderground v.1.15,2013-05-18 20:50:00,
2013-05-18 15:57:00,87.3,71.0,29.75,SSE,161,9.0,22.0,59,0.00,,,0.00,weatherlink.com 1.10,2013-05-18 20:57:00,
2013-05-18 16:05:00,87.7,71.1,29.74,SE,144,12.0,18.0,58,0.00,,,0.00,Wunderground v.1.15,2013-05-18 21:05:00,
2013-05-18 16:10:00,87.9,70.8,29.75,SE,146,12.0,13.0,57,0.00,,,0.00,Wunderground v.1.15,2013-05-18 21:10:00,
2013-05-18 16:12:00,87.9,71.0,29.75,South,181,10.0,22.0,57,0.00,,,0.00,weatherlink.com 1.10,2013-05-18 21:12:00,
2013-05-18 16:20:00,88.4,70.2,29.74,South,169,14.0,14.0,55,0.00,,,0.00,Wunderground v.1.15,2013-05-18 21:20:00,
2013-05-18 16:25:00,88.4,70.2,29.74,South,182,13.0,14.0,55,0.00,,,0.00,Wunderground v.1.15,2013-05-18 21:25:00,
2013-05-18 16:29:00,88.7,70.0,29.74,SSE,157,16.0,23.0,55,0.00,,,0.00,weatherlink.com 1.10,2013-05-18 21:29:00,
2013-05-18 16:35:00,88.5,70.3,29.74,SSW,192,15.0,15.0,55,0.00,,,0.00,Wunderground v.1.15,2013-05-18 21:35:00,
2013-05-18 16:40:00,88.3,70.1,29.74,SSE,159,15.0,16.0,55,0.00,,,0.00,Wunderground v.1.15,2013-05-18 21:40:00,
2013-05-18 16:44:00,88.4,70.0,29.74,South,175,10.0,23.0,55,0.00,,,0.00,weatherlink.com 1.10,2013-05-18 21:44:00,
2013-05-18 16:50:00,88.6,70.4,29.74,SSE,168,14.0,14.0,55,0.00,,,0.00,Wunderground v.1.15,2013-05-18 21:50:00,
2013-05-18 16:55:00,88.8,70.0,29.74,SE,133,14.0,14.0,54,0.00,,,0.00,Wunderground v.1.15,2013-05-18 21:55:00,
2013-05-18 16:59:00,89.3,70.0,29.74,SSE,157,12.0,24.0,53,0.00,,,0.00,weatherlink.com 1.10,2013-05-18 21:59:00,
2013-05-18 17:05:00,89.0,70.7,29.74,South,190,11.0,13.0,55,0.00,,,0.00,Wunderground v.1.15,2013-05-18 22:05:00,
2013-05-18 17:13:00,88.7,71.0,29.73,SSE,155,7.0,17.0,56,0.00,,,0.00,weatherlink.com 1.10,2013-05-18 22:13:00,
2013-05-18 17:20:00,89.0,70.2,29.73,South,169,11.0,19.0,54,0.00,,,0.00,Wunderground v.1.15,2013-05-18 22:20:00,
2013-05-18 17:25:00,89.2,70.9,29.73,South,190,12.0,19.0,55,0.00,,,0.00,Wunderground v.1.15,2013-05-18 22:25:00,
2013-05-18 17:28:00,89.2,71.0,29.72,South,169,8.0,21.0,55,0.00,,,0.00,weatherlink.com 1.10,2013-05-18 22:28:00,
2013-05-18 17:35:00,89.5,71.2,29.72,SE,134,10.0,11.0,55,0.00,,,0.00,Wunderground v.1.15,2013-05-18 22:35:00,
2013-05-18 17:40:00,89.1,70.8,29.72,South,169,12.0,12.0,55,0.00,,,0.00,Wunderground v.1.15,2013-05-18 22:40:00,
2013-05-18 17:44:00,89.0,71.0,29.72,SSE,157,14.0,22.0,55,0.00,,,0.00,weatherlink.com 1.10,2013-05-18 22:44:00,
2013-05-18 17:50:00,89.2,70.9,29.72,South,178,12.0,12.0,55,0.00,,,0.00,Wunderground v.1.15,2013-05-18 22:50:00,
2013-05-18 17:55:00,89.0,70.7,29.71,SSW,195,12.0,12.0,55,0.00,,,0.00,Wunderground v.1.15,2013-05-18 22:55:00,
2013-05-18 17:59:00,88.8,71.0,29.71,SSE,165,11.0,22.0,55,0.00,,,0.00,weatherlink.com 1.10,2013-05-18 22:59:00,
2013-05-18 18:05:00,88.8,71.1,29.71,SE,131,12.0,12.0,56,0.00,,,0.00,Wunderground v.1.15,2013-05-18 23:05:00,
2013-05-18 18:10:00,88.8,70.5,29.71,South,179,11.0,21.0,55,0.00,,,0.00,Wunderground v.1.15,2013-05-18 23:10:00,
2013-05-18 18:14:00,88.5,71.0,29.70,SSW,199,18.0,22.0,56,0.00,,,0.00,weatherlink.com 1.10,2013-05-18 23:14:00,
2013-05-18 18:20:00,88.4,70.2,29.70,SSE,167,14.0,14.0,55,0.00,,,0.00,Wunderground v.1.15,2013-05-18 23:20:00,
2013-05-18 18:29:00,88.4,70.0,29.70,SE,140,13.0,25.0,55,0.00,,,0.00,weatherlink.com 1.10,2013-05-18 23:29:00,
2013-05-18 18:30:00,88.4,70.2,29.70,SSE,159,13.0,13.0,55,0.00,,,0.00,Wunderground v.1.15,2013-05-18 23:30:00,
2013-05-18 18:35:00,88.5,70.8,29.69,SSW,192,12.0,13.0,56,0.00,,,0.00,Wunderground v.1.15,2013-05-18 23:35:00,
2013-05-18 18:40:00,88.3,71.1,29.70,SSE,159,12.0,16.0,57,0.00,,,0.00,Wunderground v.1.15,2013-05-18 23:40:00,
2013-05-18 18:44:00,88.2,71.0,29.69,SSE,167,17.0,24.0,56,0.00,,,0.00,weatherlink.com 1.10,2013-05-18 23:44:00,
2013-05-18 18:50:00,87.7,70.6,29.69,SSE,167,13.0,24.0,57,0.00,,,0.00,Wunderground v.1.15,2013-05-18 23:50:00,
2013-05-18 18:55:00,87.4,70.8,29.69,SSE,167,14.0,24.0,58,0.00,,,0.00,Wunderground v.1.15,2013-05-18 23:55:00,
2013-05-18 18:59:00,87.2,71.0,29.70,SSE,165,12.0,28.0,58,0.00,,,0.00,weatherlink.com 1.10,2013-05-18 23:59:00,
2013-05-18 19:05:00,87.1,70.5,29.71,South,184,12.0,14.0,58,0.00,,,0.00,Wunderground v.1.15,2013-05-19 00:05:00,
2013-05-18 19:10:00,86.9,70.8,29.71,South,175,10.0,10.0,59,0.00,,,0.00,Wunderground v.1.15,2013-05-19 00:10:00,
2013-05-18 19:14:00,86.7,71.0,29.71,South,169,8.0,16.0,60,0.00,,,0.00,weatherlink.com 1.10,2013-05-19 00:14:00,
2013-05-18 19:20:00,86.5,71.5,29.72,South,188,9.0,10.0,61,0.00,,,0.00,Wunderground v.1.15,2013-05-19 00:20:00,
2013-05-18 19:25:00,86.2,71.6,29.71,South,170,10.0,10.0,62,0.00,,,0.00,Wunderground v.1.15,2013-05-19 00:25:00,
2013-05-18 19:29:00,86.0,71.0,29.71,SSE,165,10.0,19.0,62,0.00,,,0.00,weatherlink.com 1.10,2013-05-19 00:29:00,
2013-05-18 19:30:00,86.0,71.5,29.71,South,180,9.0,9.0,62,0.00,,,0.00,Wunderground v.1.15,2013-05-19 00:30:00,
2013-05-18 19:35:00,85.8,71.7,29.70,South,175,9.0,9.0,63,0.00,,,0.00,Wunderground v.1.15,2013-05-19 00:35:00,
2013-05-18 19:40:00,85.7,71.7,29.69,SSE,165,9.0,10.0,63,0.00,,,0.00,Wunderground v.1.15,2013-05-19 00:40:00,
2013-05-18 19:44:00,85.5,72.0,29.69,SSE,160,11.0,18.0,64,0.00,,,0.00,weatherlink.com 1.10,2013-05-19 00:44:00,
2013-05-18 19:50:00,85.3,71.7,29.69,South,175,10.0,10.0,64,0.00,,,0.00,Wunderground v.1.15,2013-05-19 00:50:00,
2013-05-18 19:59:00,85.0,71.0,29.69,SSE,155,10.0,19.0,64,0.00,,,0.00,weatherlink.com 1.10,2013-05-19 00:59:00,
2013-05-18 20:05:00,84.8,71.3,29.69,South,171,10.0,14.0,64,0.00,,,0.00,Wunderground v.1.15,2013-05-19 01:05:00,
2013-05-18 20:14:00,84.5,71.0,29.70,SSE,167,8.0,14.0,65,0.00,,,0.00,weatherlink.com 1.10,2013-05-19 01:14:00,
2013-05-18 20:20:00,84.5,71.4,29.70,SSE,150,9.0,9.0,65,0.00,,,0.00,Wunderground v.1.15,2013-05-19 01:20:00,
2013-05-18 20:25:00,84.4,71.3,29.70,SSE,152,9.0,9.0,65,0.00,,,0.00,Wunderground v.1.15,2013-05-19 01:25:00,
2013-05-18 20:30:00,84.2,71.6,29.70,South,177,9.0,9.0,66,0.00,,,0.00,Wunderground v.1.15,2013-05-19 01:30:00,
2013-05-18 20:31:00,84.2,72.0,29.70,SSE,165,10.0,15.0,66,0.00,,,0.00,weatherlink.com 1.10,2013-05-19 01:31:00,
2013-05-18 20:40:00,84.0,71.4,29.71,South,174,9.0,9.0,66,0.00,,,0.00,Wunderground v.1.15,2013-05-19 01:40:00,
2013-05-18 20:45:00,83.8,71.2,29.71,South,181,10.0,10.0,66,0.00,,,0.00,Wunderground v.1.15,2013-05-19 01:45:00,
2013-05-18 20:46:00,83.8,71.0,29.71,SSE,160,9.0,17.0,66,0.00,,,0.00,weatherlink.com 1.10,2013-05-19 01:46:00,
2013-05-18 20:55:00,83.6,71.0,29.72,SSE,164,9.0,14.0,66,0.00,,,0.00,Wunderground v.1.15,2013-05-19 01:55:00,
2013-05-18 20:59:00,83.6,71.0,29.72,SE,129,12.0,17.0,66,0.00,,,0.00,weatherlink.com 1.10,2013-05-19 01:59:00,
2013-05-18 21:05:00,83.3,71.2,29.72,SSE,148,8.0,9.0,67,0.00,,,0.00,Wunderground v.1.15,2013-05-19 02:05:00,
2013-05-18 21:15:00,83.0,71.3,29.72,SSE,164,8.0,10.0,68,0.00,,,0.00,Wunderground v.1.15,2013-05-19 02:15:00,
2013-05-18 21:16:00,83.0,71.0,29.72,SSE,159,7.0,17.0,68,0.00,,,0.00,weatherlink.com 1.10,2013-05-19 02:16:00,
2013-05-18 21:25:00,82.9,71.3,29.72,SE,143,9.0,14.0,68,0.00,,,0.00,Wunderground v.1.15,2013-05-19 02:25:00,
2013-05-18 21:31:00,82.8,72.0,29.71,SSE,155,10.0,16.0,69,0.00,,,0.00,weatherlink.com 1.10,2013-05-19 02:31:00,
2013-05-18 21:40:00,82.3,71.5,29.71,SSE,161,10.0,10.0,70,0.00,,,0.00,Wunderground v.1.15,2013-05-19 02:40:00,
2013-05-18 21:45:00,82.1,71.3,29.72,SSE,157,10.0,11.0,70,0.00,,,0.00,Wunderground v.1.15,2013-05-19 02:45:00,
2013-05-18 21:46:00,82.1,71.0,29.71,SSE,153,11.0,18.0,70,0.00,,,0.00,weatherlink.com 1.10,2013-05-19 02:46:00,
2013-05-18 21:55:00,81.9,71.6,29.72,SSE,163,10.0,13.0,71,0.00,,,0.00,Wunderground v.1.15,2013-05-19 02:55:00,
2013-05-18 22:00:00,81.8,71.5,29.72,SSE,157,11.0,11.0,71,0.00,,,0.00,Wunderground v.1.15,2013-05-19 03:00:00,
2013-05-18 22:01:00,81.8,72.0,29.72,South,171,18.0,21.0,71,0.00,,,0.00,weatherlink.com 1.10,2013-05-19 03:01:00,
2013-05-18 22:10:00,81.7,71.8,29.73,South,173,11.0,11.0,72,0.00,,,0.00,Wunderground v.1.15,2013-05-19 03:10:00,
2013-05-18 22:15:00,81.6,71.7,29.73,SSW,196,10.0,11.0,72,0.00,,,0.00,Wunderground v.1.15,2013-05-19 03:15:00,
2013-05-18 22:16:00,81.7,72.0,29.73,SSE,147,8.0,17.0,72,0.00,,,0.00,weatherlink.com 1.10,2013-05-19 03:16:00,
2013-05-18 22:25:00,81.5,72.0,29.74,South,178,10.0,11.0,73,0.00,,,0.00,Wunderground v.1.15,2013-05-19 03:25:00,
2013-05-18 22:30:00,81.4,71.9,29.75,ESE,123,9.0,9.0,73,0.00,,,0.00,Wunderground v.1.15,2013-05-19 03:30:00,
2013-05-18 22:31:00,81.4,72.0,29.75,South,175,10.0,15.0,73,0.00,,,0.00,weatherlink.com 1.10,2013-05-19 03:31:00,
2013-05-18 22:40:00,81.1,72.0,29.75,South,169,9.0,9.0,74,0.00,,,0.00,Wunderground v.1.15,2013-05-19 03:40:00,
2013-05-18 22:45:00,81.0,71.9,29.75,South,184,8.0,9.0,74,0.00,,,0.00,Wunderground v.1.15,2013-05-19 03:45:00,
2013-05-18 22:46:00,80.9,72.0,29.75,South,182,10.0,16.0,74,0.00,,,0.00,weatherlink.com 1.10,2013-05-19 03:46:00,
2013-05-18 22:55:00,80.7,72.0,29.75,SSE,153,8.0,11.0,75,0.00,,,0.00,Wunderground v.1.15,2013-05-19 03:55:00,
2013-05-18 23:00:00,80.7,72.0,29.75,South,182,8.0,9.0,75,0.00,,,0.00,Wunderground v.1.15,2013-05-19 04:00:00,
2013-05-18 23:01:00,80.7,72.0,29.75,SSE,160,8.0,15.0,75,0.00,,,0.00,weatherlink.com 1.10,2013-05-19 04:01:00,
2013-05-18 23:05:00,80.6,71.9,29.75,South,177,9.0,9.0,75,0.00,,,0.00,Wunderground v.1.15,2013-05-19 04:05:00,
2013-05-18 23:15:00,80.5,72.2,29.75,South,178,8.0,9.0,76,0.00,,,0.00,Wunderground v.1.15,2013-05-19 04:15:00,
2013-05-18 23:16:00,80.5,72.0,29.75,SSW,196,7.0,14.0,76,0.00,,,0.00,weatherlink.com 1.10,2013-05-19 04:16:00,
2013-05-18 23:20:00,80.4,72.1,29.75,South,178,8.0,8.0,76,0.00,,,0.00,Wunderground v.1.15,2013-05-19 04:20:00,
2013-05-18 23:25:00,80.4,72.1,29.75,South,186,8.0,10.0,76,0.00,,,0.00,Wunderground v.1.15,2013-05-19 04:25:00,
2013-05-18 23:30:00,80.3,72.0,29.75,SSE,147,7.0,7.0,76,0.00,,,0.00,Wunderground v.1.15,2013-05-19 04:30:00,
2013-05-18 23:31:00,80.3,72.0,29.75,SSE,155,9.0,11.0,76,0.00,,,0.00,weatherlink.com 1.10,2013-05-19 04:31:00,
2013-05-18 23:40:00,80.0,71.8,29.75,South,170,7.0,10.0,76,0.00,,,0.00,Wunderground v.1.15,2013-05-19 04:40:00,
2013-05-18 23:45:00,79.9,72.0,29.74,SSE,157,7.0,10.0,77,0.00,,,0.00,Wunderground v.1.15,2013-05-19 04:45:00,
2013-05-18 23:46:00,79.9,72.0,29.74,SSE,157,11.0,11.0,77,0.00,,,0.00,weatherlink.com 1.10,2013-05-19 04:46:00,
2013-05-18 23:55:00,79.8,71.9,29.74,SSE,163,8.0,9.0,77,0.00,,,0.00,Wunderground v.1.15,2013-05-19 04:55:00,